Location: Presov
(49.0000°N, 21.2500°E)
Time: 21:00:31
(UTC+02:00)

ISS - Pass Details

Date: 17 May 2025
Orbit: 415 x 416 km, 51.6° (Epoch: 16 June)

Event Time Altitude Azimuth Distance (km) Brightness Sun altitude
Rises 23:51:35 0° 290° (WNW) 2,360 0.5 -20.9°
Reaches altitude 10° 23:53:45 10° 283° (WNW) 1,494 -0.7 -20.9°
Enters shadow 23:55:17 23° 269° (W) 934 -2.0 -21.0°
